Weather History for Elkins, WV

Change the Weather History Date:

Friday, July 26, 2013

  Actual Average Record
Temperature  
Mean Temperature 66 °F 70 °F  
Max Temperature 81 °F 81 °F 96 °F (1934)
Min Temperature 51 °F 59 °F 43 °F (1920)
Degree Days  
Heating Degree Days 0 0  
Month to date heating degree days 1 8  
Since 1 June heating degree days 13 63  
Since 1 July heating degree days 1 8  
Cooling Degree Days 1 5  
Month to date cooling degree days 204 132  
Year to date cooling degree days 326 247  
Since 1 June cooling degree days 301 224  
Growing Degree Days 16 (Base 50)    
Moisture  
Dew Point 54 °F    
Average Humidity 70    
Maximum Humidity 100    
Minimum Humidity 40    
Precipitation  
Precipitation 0.00 in 0.16 in 1.87 in (2004)
Month to date precipitation 3.79 4.55  
Year to date precipitation 24.35 28.16  
Snow  
Snow 0.00 in - - ()
Month to date snowfall 0.0  
Since 1 September snowfall 77.5  
Snow Depth 0.00 in    
Sea Level Pressure  
Sea Level Pressure 30.13 in    
Wind  
Wind Speed 1 mph (NNW)    
Max Wind Speed 10 mph    
Max Gust Speed 12 mph    
Visibility 6 miles    
Events Fog    
T = Trace of Precipitation, MM = Missing Value Source: NWS Daily Summary

Daily Weather History Graph

Daily Weather History Graph

Search for Another Location

Airport:

Trip Planner

Search our weather history database for the weather conditions in past years. The results will help you decide how hot, cold, wet, or windy it might be!

Date:

Astronomy

Jul. 26, 2013 Rise Set
Actual Time 6:15 AM EDT 8:35 PM EDT
Civil Twilight 5:45 AM EDT 9:06 PM EDT
Nautical Twilight 5:07 AM EDT 9:43 PM EDT
Astronomical Twilight 4:26 AM EDT 10:24 PM EDT
Moon 10:52 PM EDT (7/26) 10:46 AM EDT (7/26)
Length of Visible Light 15h 20m
Length of Day
14h 20m
Waning Gibbous, 80% of the Moon is Illuminated
Jul 26
Waning Gibbous
Jul 29
Last Quarter
Aug 6
New
Aug 14
First Quarter
Aug 20
Full

Hourly Weather History & Observations

Time (EDT) Temp. Dew Point Humidity Pressure Visibility Wind Dir Wind Speed Gust Speed Precip Events Conditions
12:51 AM 54.0 °F 52.0 °F 93% 30.14 in 10.0 mi Calm Calm - N/A   Clear
1:51 AM 53.1 °F 51.1 °F 93% 30.12 in 10.0 mi Calm Calm - N/A   Clear
2:11 AM 53.6 °F 51.8 °F 94% 30.14 in 10.0 mi Calm Calm - N/A   Scattered Clouds
2:51 AM 52.0 °F 51.1 °F 97% 30.13 in 1.8 mi Calm Calm - N/A   Mostly Cloudy
3:04 AM 53.6 °F 51.8 °F 94% 30.14 in 0.8 mi Calm Calm - N/A   Mist
3:51 AM 53.1 °F 52.0 °F 96% 30.14 in 0.8 mi Calm Calm - N/A   Mist
4:01 AM 51.8 °F 51.8 °F 100% 30.14 in 1.2 mi Calm Calm - N/A   Overcast
4:23 AM 51.8 °F 50.0 °F 94% 30.14 in 0.8 mi Calm Calm - N/A   Mist
4:51 AM 53.1 °F 51.1 °F 93% 30.13 in 1.2 mi Calm Calm - N/A   Overcast
5:04 AM 53.6 °F 51.8 °F 94% 30.14 in 0.8 mi Calm Calm - N/A   Mist
5:14 AM 51.8 °F 51.8 °F 100% 30.14 in 1.0 mi Calm Calm - N/A   Mist
5:34 AM 51.8 °F 51.8 °F 100% 30.15 in 2.5 mi Calm Calm - N/A   Overcast
5:51 AM 52.0 °F 50.0 °F 93% 30.14 in 1.5 mi Calm Calm - N/A   Overcast
6:26 AM 51.8 °F 51.8 °F 100% 30.16 in 0.5 mi Calm Calm - N/A Fog Fog
6:46 AM 51.8 °F 51.8 °F 100% 30.16 in 1.2 mi Calm Calm - N/A   Overcast
6:51 AM 53.1 °F 51.1 °F 93% 30.16 in 1.2 mi Calm Calm - N/A   Overcast
7:36 AM 53.6 °F 51.8 °F 94% 30.17 in 2.5 mi Calm Calm - N/A   Overcast
7:51 AM 54.0 °F 53.1 °F 97% 30.17 in 2.0 mi Calm Calm - N/A   Overcast
8:07 AM 53.6 °F 53.6 °F 100% 30.17 in 4.0 mi Calm Calm - N/A   Overcast
8:51 AM 55.0 °F 53.1 °F 93% 30.17 in 10.0 mi Calm Calm - N/A   Overcast
9:32 AM 60.8 °F 53.6 °F 77% 30.17 in 10.0 mi Calm Calm - N/A   Scattered Clouds
9:51 AM 62.1 °F 55.0 °F 78% 30.16 in 10.0 mi Calm Calm - N/A   Clear
10:51 AM 69.1 °F 57.0 °F 65% 30.15 in 10.0 mi NNW 3.5 mph - N/A   Clear
11:51 AM 73.0 °F 57.0 °F 57% 30.14 in 10.0 mi North 4.6 mph - N/A   Clear
12:51 PM 75.0 °F 55.9 °F 51% 30.12 in 10.0 mi Calm Calm - N/A   Clear
1:51 PM 77.0 °F 52.0 °F 42% 30.10 in 10.0 mi Calm Calm - N/A   Clear
2:51 PM 78.1 °F 55.9 °F 46% 30.09 in 10.0 mi Calm Calm - N/A   Clear
3:51 PM 79.0 °F 55.9 °F 45% 30.07 in 10.0 mi Calm Calm - N/A   Clear
4:51 PM 79.0 °F 57.9 °F 48% 30.07 in 10.0 mi NW 8.1 mph - N/A   Clear
5:51 PM 79.0 °F 59.0 °F 50% 30.06 in 10.0 mi Variable 5.8 mph - N/A   Clear
6:51 PM 77.0 °F 57.9 °F 52% 30.06 in 10.0 mi NW 3.5 mph - N/A   Clear
7:51 PM 73.0 °F 60.1 °F 64% 30.07 in 10.0 mi Calm Calm - N/A   Clear
8:51 PM 66.9 °F 60.1 °F 79% 30.08 in 10.0 mi Calm Calm - N/A   Clear
9:51 PM 63.0 °F 60.1 °F 90% 30.09 in 10.0 mi Calm Calm - N/A   Clear
10:51 PM 61.0 °F 57.9 °F 90% 30.09 in 10.0 mi Calm Calm - N/A   Clear
11:51 PM 60.1 °F 57.9 °F 93% 30.07 in 10.0 mi Calm Calm - N/A   Clear